Regional Weather Roundup
Issued by NWS Upton, NY

Current Version | Previous Version | Graphics & Text | Print | Product List | Glossary Off
Versions: 1 2 3 4 5 6 7 8 9 10 11 12 13 14 15 16 17 18 19 20 21 22 23 24 25 26 27 28 29 30 31 32 33 34 35 36 37 38 39 40 41 42 43 44 45 46 47 48 49 50

000
ASUS41 KOKX 010404
RWROKX

REGIONAL WEATHER ROUNDUP
NATIONAL WEATHER SERVICE NEW YORK NY
1200 AM EDT SUN MAY 01 2016

NOTE: "FAIR" INDICATES FEW OR NO CLOUDS BELOW 12,000 FEET WITH NO
SIGNIFICANT WEATHER AND/OR OBSTRUCTIONS TO VISIBILITY.

NYZ071-072-176-178-NJZ106-104-010500-
NEW YORK CITY METRO AREA


CITY           SKY/WX    TMP DP  RH WIND       PRES   REMARKS
CENTRAL PARK   CLOUDY    50  36  58 MISG      30.26S
LAGUARDIA APRT CLOUDY    51  37  58 S8        30.24S
KENNEDY INTL   CLOUDY    49  37  63 SE6       30.26S
NEWARK/LIBERTY CLOUDY    51  39  63 SE6       30.24S
BRNX BOT. GARD   N/A     48  36  61 SE7       30.26R
TETERBORO      CLOUDY    51  36  56 S5        30.23R
$$

NYZ177-179-078>081-010500-
LONG ISLAND NEW YORK

CITY           SKY/WX    TMP DP  RH WIND       PRES   REMARKS
FARMINGDALE    CLOUDY    47  38  71 S6        30.26S
ISLIP          MOCLDY    47  37  68 CALM      30.24F
SHIRLEY        CLEAR     42  37  82 CALM      30.26F
RIVERHEAD        N/A     41  37  87 CALM      30.25F
WESTHAMPTON    CLEAR     34  32  92 CALM      30.27S
EAST HAMPTON   FAIR      35  32  88 CALM      30.26R
MONTAUK POINT    N/A     44  37  76 CALM      30.28R
$$

NYZ052-065-067-010500-
HUDSON VALLEY

CITY           SKY/WX    TMP DP  RH WIND       PRES   REMARKS
WHITE PLAINS   CLOUDY    46  38  73 SE5       30.24R
NEWBURGH       PTCLDY    50  34  53 VRB5      30.21F
MONTGOMERY     PTCLDY    50  36  58 S3        30.21S
POUGHKEEPSIE   PTCLDY    51  38  60 SE5       30.21S
ALBANY         MOCLDY    55  39  54 S6        30.18S
$$

NJZ001-105-106-008-010-013-015-019>022-104-010500-
NEW JERSEY

CITY           SKY/WX    TMP DP  RH WIND       PRES   REMARKS
NEWARK/LIBERTY CLOUDY    51  39  63 SE6       30.24S
TETERBORO      CLOUDY    51  36  56 S5        30.23R
CALDWELL       CLOUDY    50  36  58 CALM      30.24R
MORRISTOWN     CLOUDY    46  37  71 CALM      30.24R
SOMERVILLE     CLOUDY    48  39  71 CALM      30.22S
SUSSEX         CLOUDY    47  42  83 CALM      30.22S
ANDOVER          N/A     50  38  63 CALM      30.22S
TRENTON        PTCLDY    49  36  61 SE5       30.23S
MILLVILLE      LGT RAIN  48  41  76 CALM      30.23S
ATLANTIC CITY  CLOUDY    49  42  77 SE3       30.24S
WRIGHTSTOWN    CLOUDY    45  39  78 S1        30.22R
TOMS RIVER     CLOUDY    43  36  75 CALM      30.25R
BELMAR         CLOUDY    47  40  76 CALM      30.26R
$$

PAZ047>061-062-071-010500-
EASTERN PENNSYLVANIA

CITY           SKY/WX    TMP DP  RH WIND       PRES   REMARKS
PHILADELPHIA   LGT RAIN  52  35  52 SE5       30.23F
ALLENTOWN      CLOUDY    55  39  54 S7        30.20F
SCRANTON       CLOUDY    53  40  61 SE10G17   30.15F
$$

CTZ002-004>006-009-010-012-RIZ004-006-007-MAZ004-011-015-010500-
SOUTHERN NEW ENGLAND
 IN CT

CITY           SKY/WX    TMP DP  RH WIND       PRES   REMARKS
BRADLEY INTL   MOCLDY    47  32  56 S9        30.24R
HARTFORD       CLEAR     48  34  58 S8        30.25S
DANBURY        PTCLDY    46  36  68 CALM      30.24F
WTRBRY/OXFORD    N/A     43  36  75 S5        30.24F
BRIDGEPORT     CLEAR     49  38  65 S3        30.25F
MERIDEN        CLEAR     46  34  62 CALM      30.25F
NEW HAVEN      CLEAR     44  34  67 SE3       30.25F
CHESTER        FAIR      45  36  70 S3        30.25S
GROTON         CLEAR     44  41  89 S6        30.26S
WILLIMANTIC    CLEAR     44  35  70 CALM      30.26S

 IN RI

CITY           SKY/WX    TMP DP  RH WIND       PRES   REMARKS
PROVIDENCE     PTCLDY    43  33  68 SW3       30.27S
BLOCK ISLAND   CLEAR     42  35  76 CALM      30.27S
WESTERLY       CLEAR     41  33  73 CALM      30.27S

 IN MA

CITY           SKY/WX    TMP DP  RH WIND       PRES   REMARKS
BOSTON         PTCLDY    46  34  62 SW10      30.26R
WORCESTER      PTCLDY    43  28  55 SW10      30.22S
WESTFIELD      MOCLDY    47  30  51 S8        30.23R
PROVINCETOWN   PTCLDY    44  35  70 S7        30.27S
NANTUCKET      CLEAR     38  33  82 CALM      30.26S
$$

ANZ330-335-338-340-345-350-353-355-010500-
COASTAL MARINE OBSERVATIONS


STATION/POSITION TIME  SKY/WX   TEMP    WIND        PRES    VSBY  WAVE
                                AIR SEA DIR/SP/G                  HT/PER
                 (UTC)          (F)     (DEG/KT/KT) (MB)    (MI)  (FT/S)
NY HARB ENTRANCE 0250            49 51  140/  8/ 10 1023.9          4/ 8
20S FIRE ISLAND  0250            47 49  130/  6/  8 1024.4          4/ 8
GREAT SOUTH BAY  0300            48 57  180/  6/ 10   N/A
23 SSW MONTAUK P 0250            46 48  120/  6/  8 1024.2          4/ 7
15 E BARNEGAT LI 0322               51                N/A           4/ 8
HUDSON CANYON    0250            48 48              1023.9          5/ 8
KINGS POINT      0300               55                N/A
EXECUTION ROCKS  NOT AVBL
CENTRAL LI SOUND 0300            47     170/  6/  8   N/A           1
EASTERN LI SOUND 0300            47 48  170/  6/  8   N/A
ROBBINS REEF     0306            50     150/ 12/ 15 1023.3
$$


>>>>>>>>>>>>>>>>>>>>>>>>>>>> KEY <<<<<<<<<<<<<<<<<<<<<<<<<<<
>                                                          <
>     SKY/WX - SKY CONDITION/PRESENT WEATHER               <
>     TMP    - TEMPERATURE IN FAHRENHEIT                   <
>     DP     - DEWPOINT IN FAHRENHEIT                      <
>     RH     - RELATIVE HUMIDITY IN PERCENT                <
>     WIND   - DIRECTION AND SPEED IN MPH                  <
>     PRES   - MEAN SEA LEVEL PRESSURE IN INCHES OF HG     <
>     WCI    - WIND CHILL INDEX                            <
>     VSB    - VISIBILITY IN MILES                         <
>     HX     - HEAT INDEX                                  <
>     TC     - TEMPERATURE IN CELSIUS                      <
>     VRB    - VARIABLE WIND DIRECTION                     <
>                                                          <
>>>>>>>>>>>>>>>>>>>>>>>>>>>> KEY <<<<<<<<<<<<<<<<<<<<<<<<<<<





USA.gov is the U.S. government's official web portal to all federal, state and local government web resources and services.